Flag for France Weather past 2 weeks in Lille, France

Now
66 °F

Passing clouds.


Feels Like: 66 °F
Forecast: 48 / 74 °F
Wind: 8 mph from East

Location: Lille Airport

Current Time: Jul 31, 2015 at 1:57:17 PM

Latest Report: Jul 31, 2015 at 1:30 PM


Visibility: N/A

Pressure: 30.09 "Hg

Humidity: 49%

Dew point: 46 °F

Location of LilleLocation

Historic Weather in Lille — Graph

°F

Lille temperature yesterday

Maximum temperature yesterday: 66 °F (at 5:30 PM)
Minimum temperature yesterday: 52 °F (at 4:30 AM)
Average temperature yesterday: 58 °F

Past Weeks' High & Low Weather Summary

 TemperatureHumidityPressure
High84 °F (Jul 16, 4:30 PM)100% (Jul 20, 8:30 AM)30.15 "Hg (Jul 20, 8:30 AM)
Low45 °F (Jul 31, 6:30 AM)31% (Jul 18, 8:00 PM)29.50 "Hg (Jul 25, 3:00 AM)
Average64 °F71%29.90 "Hg
* Reported Jul 16 12:00 Noon — Jul 31 12:30 PM, Lille, Weather by CustomWeather, © 2015

Note: Actual official high and low records may vary slightly from our data, if they occured in-between our weather recording intervals... More about our weather records

Advertising

Lille weather history for previous 24 hours

 ConditionsComfort  
Time TempWeatherWind HumidityBarometerVisibility
12:30 PM
Fri, Jul 31
64 °FPartly sunny.7 mph52%30.12 "HgN/A
12:00 PM63 °FPartly sunny.7 mph59%30.12 "HgN/A
11:30 AM63 °FScattered clouds.8 mph59%30.12 "HgN/A
11:00 AM63 °FPassing clouds.7 mph59%30.12 "HgN/A
10:30 AM61 °FPassing clouds.9 mph63%30.12 "HgN/A
10:00 AM61 °FPassing clouds.8 mph63%30.12 "HgN/A
9:30 AM59 °FPassing clouds.9 mph72%30.15 "HgN/A
9:00 AM57 °FPassing clouds.6 mph77%30.15 "HgN/A
8:30 AM55 °FPassing clouds.5 mph82%30.15 "HgN/A
8:00 AM52 °FClear.3 mph100%30.12 "Hg6 mi
7:30 AM50 °FClear.2 mph94%30.12 "Hg4 mi
7:00 AM48 °FClear.3 mph94%30.12 "Hg6 mi
6:30 AM45 °FClear.No wind100%30.12 "Hg10 mi
6:00 AM46 °FClear.No wind93%30.12 "Hg5 mi
5:30 AM46 °FClear.No wind100%30.12 "Hg4 mi
5:00 AM48 °FClear.No wind94%30.12 "Hg5 mi
4:30 AM48 °FClear.No wind94%30.12 "Hg10 mi
4:00 AM48 °FClear.No wind94%30.12 "Hg10 mi
3:30 AM48 °FClear.No wind94%30.12 "Hg10 mi
3:00 AM48 °FClear.No wind94%30.12 "Hg10 mi
2:30 AM48 °FClear.No wind94%30.12 "Hg10 mi
2:00 AM50 °FClear.No wind88%30.12 "Hg10 mi
1:30 AM50 °FClear.2 mph88%30.12 "Hg10 mi
1:00 AM50 °FClear.No wind88%30.12 "Hg10 mi
12:30 AM52 °FClear.1 mph88%30.12 "Hg10 mi
12:00 AM54 °FClear.No wind82%30.12 "Hg10 mi
11:30 PM
Thu, Jul 30
55 °FClear.3 mph77%30.12 "Hg10 mi
11:00 PM55 °FClear.3 mph77%30.12 "Hg10 mi
10:30 PM57 °FSunny.3 mph72%30.12 "Hg10 mi
10:00 PM57 °FPassing clouds.6 mph67%30.12 "HgN/A
9:30 PM59 °FSunny.6 mph63%30.09 "Hg10 mi
9:00 PM61 °FPassing clouds.7 mph59%30.09 "HgN/A
8:30 PM61 °FPassing clouds.9 mph59%30.09 "HgN/A
8:00 PM61 °FPassing clouds.9 mph55%30.09 "HgN/A
7:30 PM63 °FBroken clouds.12 mph52%30.07 "HgN/A
7:00 PM64 °FPassing clouds.10 mph49%30.07 "HgN/A
6:30 PM66 °FPassing clouds.10 mph43%30.07 "HgN/A
6:00 PM64 °FPassing clouds.10 mph46%30.07 "HgN/A
5:30 PM66 °FPartly sunny.10 mph43%30.07 "HgN/A
5:00 PM64 °FBroken clouds.9 mph52%30.07 "HgN/A
4:30 PM64 °FBroken clouds.10 mph52%30.07 "HgN/A
4:00 PM64 °FBroken clouds.12 mph56%30.07 "HgN/A
3:30 PM63 °FBroken clouds.7 mph59%30.07 "HgN/A
3:00 PM64 °FBroken clouds.8 mph49%30.04 "HgN/A
2:30 PM63 °FMild.8 mph64%30.04 "HgN/A
2:00 PM63 °FPartly sunny.12 mph59%30.04 "HgN/A
1:30 PM61 °FBroken clouds.6 mph68%30.04 "HgN/A
1:00 PM59 °FCool.5 mph77%30.04 "HgN/A
Weather by CustomWeather, © 2015

See weather overviewHow to use our weather pages